ニオワイズ彗星

417P/NEOWISE (2021)

English version
Home page
Updated on September 11, 2021

---------------------------------------------------------------------

・ プロフィール

符号 417P/2021 B1
検出日 2021年1月17日
検出光度 20.4等
検出者 E. Schwab (Egelsbach, Germany)

・ 写真集

・ 軌道要素

Epoch 2021 Apr. 16.0 TT = JDT 2459320.5
T 2021 Apr. 22.17292 TT                                 Rudenko
q   1.4920132            (2000.0)            P               Q
n   0.16090655     Peri.  129.45750     -0.48050097     +0.86704446
a   3.3477542      Node   111.35102     -0.84180258     -0.41386371
e   0.5543242      Incl.    8.13100     -0.24594153     -0.27739995
P   6.13
From 253 observations 2015 May 15-2021 July 16, mean residual 0".6.

・ 星図

・ 光度変化

        m1 = 16.5 + 5 logΔ + 10.0 log r(t - 30)

---------------------------------------------------------------------

軌道要素はM.P.E.C. 2021-O56に掲載されたものです。
星図はステラナビゲータ Ver.10 (アストロアーツ) で作成したものです。
光度グラフはComet for Windowsで作成したものです。

---------------------------------------------------------------------

Copyright(C) Seiichi Yoshida (comet@aerith.net). All rights reserved.